Location: Bayford
(51.7500°N, 0.1000°W)
Time: 13:27:35
(UTC+00:00)

Daily predictions for brighter satellites

Satellite Brightness Start Highest point End
(mag) Time Altitude Azimuth Time Altitude Azimuth Time Altitude Azimuth
Meteor 2-3 Rocket 4.1 16:23:19 10° NNW 16:28:58 75° W 16:34:38 10° S
Cosmos 2084 Rocket 3.5 16:25:17 10° NW 16:29:07 71° SW 16:32:54 10° SE
ISS -3.6 16:26:55 10° W 16:30:17 76° SSW 16:33:39 10° ESE
Cosmos 2279 Rocket 4.2 16:25:42 10° N 16:31:45 48° ENE 16:37:44 10° SE
Aureole 3 Rocket 3.2 16:27:34 10° N 16:32:53 62° ENE 16:36:43 10° SSE
Meteor 1-27 4.3 16:28:53 10° S 16:34:24 59° E 16:39:54 10° NNE
Spot 4 Rocket 4.4 16:30:17 10° S 16:35:24 74° WSW 16:40:34 10° NNW
ATLAS CENTAUR R/B 2.2 16:33:23 10° WNW 16:36:46 58° NNE 16:43:04 10° ESE
Cosmos 2237 Rocket 3.7 16:32:19 10° NW 16:37:36 43° WSW 16:42:51 10° S
Cosmos 1606 2.5 16:34:15 10° S 16:37:51 73° E 16:41:32 10° NNE
Cosmos 2058 Rocket 3.9 16:35:55 10° SSE 16:39:49 31° E 16:43:43 10° NNE
Cosmos 405 Rocket 3.2 16:43:07 10° SSE 16:46:39 38° E 16:50:15 10° NNE
Cosmos 1140 Rocket 4.3 16:43:28 10° N 16:48:02 30° NE 16:52:34 10° ESE
Cosmos 2150 Rocket 4.0 16:43:06 10° SSW 16:48:16 86° ESE 16:53:32 10° NNE
USA 306 1.1 16:49:32 10° WNW 16:51:49 86° NNE 16:53:59 10° ESE
Cosmos 1606 Rocket 3.6 16:48:15 10° S 16:52:43 90° SE 16:57:11 10° N
SJ-7 4.3 16:49:48 10° SSE 16:53:46 77° ENE 16:57:49 10° NNW
SMAP 3.1 16:50:00 10° SSE 16:54:33 58° ENE 16:59:09 10° N
Cosmos 1726 Rocket 3.5 16:50:26 10° S 16:54:51 74° E 16:59:18 10° NNE
Cosmos 1500 3.2 16:54:26 10° N 16:57:51 45° ENE 17:01:15 10° SSE
Cosmos 1825 Rocket 4.4 16:57:19 10° NNW 17:01:31 52° W 17:05:42 10° S
Cosmos 1437 Rocket 2.5 16:58:23 10° N 17:02:06 80° ENE 17:05:50 10° SSE
Cosmos-2242 4.3 16:59:12 10° SE 17:02:22 20° E 17:05:03 12° NE
CZ-2D R/B 3.4 16:59:07 10° S 17:02:47 72° WSW 17:06:29 10° NNW
SL-8 R/B 4.2 17:02:18 10° W 17:06:59 57° S 17:11:41 10° ESE
Cosmos 2082 Rocket 4.3 17:06:26 10° N 17:07:26 10° N 17:08:26 10° NNE
Cosmos 2263 Rocket 2.8 17:02:39 10° S 17:07:42 37° ESE 17:12:14 13° NE
RESURS DK-1 4.2 17:06:43 10° N 17:08:41 13° NNE 17:09:17 13° NE
Tsikada Rocket 4.3 17:03:27 10° SSW 17:09:40 70° WNW 17:15:52 10° N
Cosmos 2151 2.9 17:05:27 10° N 17:09:45 85° E 17:14:01 10° S
Cosmos 2227 Rocket 2.3 17:04:30 10° SSW 17:10:10 86° WNW 17:15:53 10° NNE
Cosmos 2298 Rocket 4.4 17:05:45 10° SW 17:11:02 65° WNW 17:16:22 10° NNE
CZ-2C R/B 2.9 17:09:58 10° S 17:13:29 68° WSW 17:17:05 10° NNW
Cosmos 1238 Rocket 3.5 17:11:45 10° SSW 17:15:22 47° WNW 17:18:33 10° N
CORIOLIS 4.1 17:12:34 10° SSE 17:17:55 89° ENE 17:23:20 10° NNW
Helios 1B rocket 3.6 17:14:39 10° S 17:18:26 44° W 17:22:14 10° NNW
Cosmos 1603 4.1 17:13:06 10° NNW 17:18:31 42° NE 17:23:52 10° ESE
YAOGAN 1 3.9 17:19:24 19° ENE 17:19:45 19° ENE 17:22:49 10° NNE
Cosmos 2251 Rocket 3.9 17:15:15 10° NNW 17:20:18 40° NE 17:25:20 10° SE
CZ-4B R/B 3.5 17:17:20 10° SSE 17:20:56 85° ENE 17:24:34 10° NNW
Cosmos 1812 3.7 17:18:35 10° SE 17:21:34 24° E 17:22:20 22° ENE
SL-16 R/B 4.3 17:18:36 10° N 17:23:47 28° NW 17:28:56 10° WSW
CZ-4B R/B 3.5 17:19:01 10° SE 17:24:00 57° ENE 17:28:51 10° N
Cosmos 407 Rocket 3.9 17:20:06 10° NNW 17:25:00 40° NE 17:29:49 10° SE
ATLAS 2AS CENTAUR R/B 3.2 17:19:02 10° NW 17:25:43 41° NNE 17:30:16 18° E
USA 305 2.5 17:22:07 10° WNW 17:25:57 85° NNE 17:28:37 19° ESE
Meteor 1-31 Rocket 2.8 17:26:29 10° S 17:30:10 77° WSW 17:33:54 10° NNW
Lacrosse 4 Rocket 1.6 17:26:16 10° NNW 17:30:34 52° NE 17:34:32 11° SE
Cosmos 724 4.5 17:24:53 10° SSW 17:30:59 62° ESE 17:35:29 18° NE
SL-16 R/B 3.2 17:26:23 10° NW 17:31:51 49° WSW 17:37:16 10° S
Cosmos 1544 4.3 17:33:47 10° NNW 17:36:51 39° W 17:39:54 10° SSW
Cosmos 1076 Rocket 4.4 17:41:25 10° NNW 17:45:40 52° W 17:49:54 10° S
Cosmos 1943 3.1 17:40:21 10° NNW 17:46:01 79° ENE 17:51:40 10° SE
Cosmos 1607 4.0 17:43:24 10° SW 17:49:46 89° NW 17:54:20 21° NE
Cosmos 1812 Rocket 3.8 17:46:32 10° SSE 17:50:39 44° E 17:52:19 30° NE
Cosmos 1190 Rocket 4.4 17:48:54 10° NNW 17:53:57 42° NE 17:56:11 28° ESE
Radarsat Rocket 3.8 17:48:15 10° SSE 17:54:03 79° ENE 18:00:10 10° NNW
SL-08 R/B 3.8 17:54:03 34° E 17:54:24 34° E 17:58:36 10° SSE
Cosmos 1602 4.1 17:53:48 10° NNW 17:57:30 62° W 18:01:10 10° S
ADEOS 3.5 17:53:30 10° SSE 17:58:38 61° ENE 18:03:47 10° N
Cosmos 2297 Rocket 3.7 17:53:56 10° WSW 17:58:55 31° NW 18:03:49 10° NNE
Cosmos 2219 3.6 17:54:58 10° SW 18:00:31 61° NW 18:05:03 16° NNE
USA 307 3.2 17:57:45 10° WNW 18:01:33 55° SSW 18:03:12 29° SE
Cosmos 1666 3.7 17:58:22 10° NNW 18:01:45 43° W 18:05:06 10° SSW
Cosmos 1023 Rocket 4.5 17:58:40 10° NNW 18:03:53 82° WSW 18:08:59 10° SSE
ADEOS Rocket 4.2 18:05:29 20° NNE 18:05:29 20° NNE 18:08:15 10° N
Meteor 1-25 Rocket 4.1 17:59:57 10° NNW 18:05:41 82° ENE 18:11:18 10° SSE
ISS -1.9 18:03:50 10° W 18:06:45 27° SSW 18:08:24 18° SSE
USA 234 3.3 18:03:40 30° ENE 18:07:07 69° SE 18:13:37 10° SW
Cosmos 1553 Rocket 4.4 18:02:06 10° N 18:08:03 39° ENE 18:10:27 29° ESE
BREEZE-M DEB (TANK) 3.0 18:09:50 10° WSW 18:10:54 26° SW 18:10:54 26° SW
COSMO-SKYMED 1 2.4 18:11:55 41° NNE 18:13:20 69° ESE 18:17:39 10° S
Cosmos 2344 3.7 18:06:13 10° SSW 18:13:23 49° ESE 18:16:08 34° ENE
Cosmos 2082 3.9 18:12:12 10° SW 18:17:47 69° WNW 18:21:20 23° NNE
Helios 1A 3.3 18:20:32 24° N 18:22:58 65° WNW 18:27:04 10° SSW
Cosmos 2026 Rocket 3.9 18:17:04 10° S 18:23:12 63° E 18:29:28 10° NNE
Cosmos 1833 Rocket 4.1 18:19:03 10° NNW 18:22:32 22° NNE 18:22:32 22° NNE
Lacrosse 5 3.6 18:22:46 10° S 18:24:55 19° SSE 18:24:55 19° SSE
Cosmos 2195 Rocket 4.4 18:23:03 10° S 18:29:22 80° E 18:35:40 10° NNE
Cosmos 1140 Rocket 4.1 18:25:03 10° NNW 18:30:06 54° WSW 18:35:07 10° S
SME Rocket 4.2 18:27:15 10° SSE 18:32:49 79° ENE 18:41:34 10° NNW
CZ-4B R/B 2.9 18:34:38 77° N 18:34:38 77° N 18:38:37 10° NNW
Cosmos 1092 Rocket 3.8 18:30:22 10° S 18:36:29 78° E 18:42:39 10° NNE
Cosmos-2242 3.8 18:35:10 10° SSW 18:39:24 51° WNW 18:41:45 24° N
Nadezhda 4 Rocket 4.4 18:34:00 10° SSW 18:40:04 59° WNW 18:46:08 10° N
CZ-4B R/B 3.9 18:42:41 38° NNE 18:42:41 38° NNE 18:46:29 10° N
ATLAS CENTAUR R/B 3.8 18:37:14 10° WNW 18:41:40 45° SW 18:49:55 10° SSE
Meteor 1-5 Rocket 4.1 18:41:33 10° NNW 18:47:12 88° E 18:53:01 10° SSE
Cosmos 676 Rocket 4.3 18:41:57 10° NNW 18:46:18 54° NNE 18:46:18 54° NNE
RESURS DK-1 4.2 18:43:24 10° NNW 18:44:58 22° NNW 18:44:58 22° NNW
Cosmos 2227 4.1 18:43:31 10° SSW 18:49:17 87° ESE 18:50:09 66° NE
Cosmos 2263 Rocket 3.0 18:46:10 10° SW 18:51:32 47° NW 18:53:56 30° N
Cosmos 1844 Rocket 3.6 18:47:23 10° S 18:50:37 34° SSE 18:50:37 34° SSE
Cosmos 2082 Rocket 4.2 18:50:21 10° NNW 18:52:13 15° N 18:52:13 15° N
Cosmos 2227 Rocket 4.1 18:50:32 10° W 18:55:02 24° NW 18:58:05 16° N
YAOGAN 1 3.4 18:56:27 46° NW 18:56:27 46° NW 18:59:40 10° NNW
Cosmos 1812 4.3 18:53:16 10° SW 18:56:36 31° WNW 18:56:48 31° WNW
Lacrosse 4 Rocket 3.6 19:05:10 10° WNW 19:08:42 25° WSW 19:10:41 18° SSW
ATLAS 2AS CENTAUR R/B 2.6 19:10:17 10° NW 19:17:16 81° SW 19:17:43 76° S
Cosmos 1818 4.4 19:17:22 10° SW 19:21:04 45° SW 19:21:04 45° SW
USA 234 3.6 19:51:01 60° NW 19:51:01 60° NW 19:56:38 10° W
Cosmos 2344 4.2 20:20:33 10° WSW 20:26:10 47° WNW 20:26:10 47° WNW
